Location: Spangle
(47.4302°N, 117.3779°W)
Time: 14:22:39
(UTC+00:00)

Envisat - Pass Details

Date: 19 April 2026
Orbit: 761 x 762 km, 98.4° (Epoch: 15 May)

Event Time Altitude Azimuth Distance (km) Brightness Sun altitude
Rises 10:26:47 0° 15° (NNE) 3,236 7.3 -21.6°
Reaches altitude 10° 10:29:06 10° 17° (NNE) 2,305 6.4 -21.3°
Maximum altitude 10:34:11 75° 103° (ESE) 794 3.1 -20.7°
Enters shadow 10:36:26 34° 182° (S) 1,248 3.7 -20.5°
